Location: Blue Pit
(43.1414°N, 93.2208°W)
Time: 22:46:15
(UTC+00:00)

UNK - Pass Details

Date: 18 November 2025
Orbit: 655 x 672 km, 98.4° (Epoch: 14 December)

Event Time Altitude Azimuth Distance (km) Brightness Sun altitude
Rises 23:33:00 0° 12° (NNE) 3,032 6.8 -8.8°
Reaches altitude 10° 23:35:15 10° 11° (N) 2,114 6.0 -9.1°
Maximum altitude 23:39:52 78° 285° (WNW) 691 3.9 -10.0°
Drops below altitude 10° 23:44:26 10° 200° (SSW) 2,094 6.8 -10.7°
Sets 23:46:39 0° 199° (SSW) 3,001 7.6 -11.1°
